FW4212 Weather Reports


Display with metric or nautical units.
time (UTC)temp
F
wind
direction
speed
MPH
gust
MPH
rain 1hr
in
rain 24hr
in
rain mn
in
humidity
%
barometer
mb
20260904072035 72 206 0.0 0.0 0.00 0.00 0.00 96 1016.4
20260904071542 73 206 0.0 0.0 0.00 0.00 0.00 96 1016.5
20260904071034 73 206 0.0 0.0 0.00 0.00 0.00 96 1016.8
20260904070534 73 206 0.0 0.0 0.00 0.00 0.00 96 1016.7
20260904070033 73 206 0.0 0.0 0.00 0.00 0.00 96 1016.7
20260904065532 73 206 0.0 0.0 0.00 0.00 0.00 96 1016.7
20260904065133 73 206 0.0 0.0 0.00 0.00 0.00 96 1016.7
20260904064536 73 206 0.0 0.0 0.00 0.00 0.00 96 1016.7
20260904064031 73 206 0.0 0.0 0.00 0.00 0.00 95 1016.7
20260904063531 73 206 0.0 0.0 0.00 0.00 0.00 96 1016.7
20260904063035 73 206 0.0 0.0 0.00 0.00 0.00 95 1016.9
20260904062530 73 206 0.0 0.0 0.00 0.00 0.00 95 1016.9
20260904062029 73 206 0.0 0.0 0.00 0.00 0.00 95 1017.0
20260904061529 73 206 0.0 0.0 0.00 0.00 0.00 95 1017.0
20260904061028 73 206 0.0 0.0 0.00 0.00 0.00 95 1017.0
20260904060528 74 206 0.0 0.0 0.00 0.00 0.00 95 1016.9
20260904060028 74 206 0.0 0.0 0.00 0.00 0.00 95 1017.1
20260904055526 74 206 0.0 0.0 0.00 0.00 0.00 95 1017.2
20260904055025 74 206 0.0 0.0 0.00 0.00 0.00 95 1017.2
20260904054533 74 206 0.0 0.0 0.00 0.00 0.00 95 1017.2
20260904054025 74 206 0.0 0.0 0.00 0.00 0.00 95 1017.2
20260904053524 74 206 0.0 0.0 0.00 0.00 0.00 95 1017.3
20260904053028 74 206 0.0 0.0 0.00 0.00 0.00 95 1017.3
20260904052524 74 206 0.0 0.0 0.00 0.00 0.00 95 1017.3
20260904052025 74 206 0.0 0.0 0.00 0.00 0.00 95 1017.4
20260904051523 74 206 0.0 0.0 0.00 0.00 0.00 95 1017.4
20260904051022 74 206 0.0 0.0 0.00 0.00 0.00 95 1017.4
20260904050524 74 206 0.0 0.0 0.00 0.00 0.00 94 1017.6
20260904050021 74 206 0.0 0.0 0.00 0.00 0.00 94 1017.5
20260904045523 74 206 0.0 0.0 0.00 0.00 0.00 95 1017.6
20260904045020 75 206 0.0 0.0 0.00 0.00 0.00 95 1017.5
20260904044519 75 206 0.0 0.0 0.00 0.00 0.00 95 1017.6
20260904044019 75 206 0.0 0.0 0.00 0.00 0.00 95 1017.6
20260904043518 75 206 0.0 0.0 0.00 0.00 0.00 94 1017.7
20260904043019 75 206 0.0 0.0 0.00 0.00 0.00 94 1017.6
20260904042519 75 206 0.0 0.0 0.00 0.00 0.00 94 1017.7
20260904042022 75 206 0.0 1.0 0.00 0.00 0.00 94 1017.6
20260904041517 75 206 0.0 2.0 0.00 0.00 0.00 94 1017.8
20260904041017 75 206 1.0 2.0 0.00 0.00 0.00 94 1017.8
20260904040517 75 213 0.0 0.0 0.00 0.00 0.00 93 1017.7
20260904040015 75 213 0.0 0.0 0.00 0.00 0.00 94 1017.7
20260904035515 75 213 0.0 0.0 0.00 0.00 0.00 93 1017.7
20260904035014 75 213 0.0 0.0 0.00 0.00 0.00 93 1017.8
20260904034513 75 213 0.0 0.0 0.00 0.00 0.00 94 1017.8
20260904034013 75 213 0.0 0.0 0.00 0.00 0.00 94 1017.8
20260904033516 75 213 0.0 3.0 0.00 0.00 0.00 93 1017.8
20260904033013 75 213 0.0 3.0 0.00 0.00 0.00 93 1017.8
20260904032513 76 206 0.0 0.0 0.00 0.00 0.00 92 1017.8
20260904032013 76 214 0.0 0.0 0.00 0.00 0.00 93 1017.7
20260904031513 76 214 0.0 0.0 0.00 0.00 0.00 93 1017.8
20260904031016 76 214 0.0 0.0 0.00 0.00 0.00 92 1017.9
20260904030517 76 214 0.0 0.0 0.00 0.00 0.00 92 1017.8
20260904030013 76 214 0.0 0.0 0.00 0.00 0.00 92 1017.8
20260904025513 76 214 0.0 0.0 0.00 0.00 0.00 92 1017.7
20260904025012 76 126 0.0 0.0 0.00 0.00 0.00 92 1017.7
20260904024511 76 126 0.0 0.0 0.00 0.00 0.00 91 1017.8
20260904024012 76 126 0.0 0.0 0.00 0.00 0.00 91 1017.8
20260904023511 76 126 0.0 0.0 0.00 0.00 0.00 91 1017.9
20260904023012 77 227 0.0 0.0 0.00 0.00 0.00 91 1018.0
20260904022513 77 227 0.0 0.0 0.00 0.00 0.00 90 1018.0
20260904022011 77 227 0.0 0.0 0.00 0.00 0.00 89 1018.1
20260904021511 77 227 0.0 0.0 0.00 0.00 0.00 89 1018.1
20260904021011 77 227 0.0 0.0 0.00 0.00 0.00 89 1018.0
20260904020511 77 227 0.0 0.0 0.00 0.00 0.00 91 1018.0
20260904020011 77 227 0.0 0.0 0.00 0.00 0.00 91 1018.0
20260904015511 78 227 0.0 0.0 0.00 0.00 0.00 91 1017.9
20260904015013 78 127 0.0 0.0 0.00 0.00 0.00 90 1017.9
20260904014510 78 127 0.0 0.0 0.00 0.00 0.00 90 1017.8
20260904014012 78 127 0.0 0.0 0.00 0.00 0.00 90 1017.7
20260904013510 78 127 0.0 0.0 0.00 0.00 0.00 89 1017.7
20260904013009 78 127 0.0 0.0 0.00 0.00 0.00 89 1017.8
20260904012509 78 127 0.0 0.0 0.00 0.00 0.00 89 1017.7
20260904012010 78 127 0.0 0.0 0.00 0.00 0.00 89 1017.4
20260904011525 78 126 0.0 0.0 0.00 0.00 0.00 88 1017.3
20260904011009 79 127 0.0 0.0 0.00 0.00 0.00 88 1017.3
20260904010509 79 127 0.0 0.0 0.00 0.00 0.00 88 1017.3
20260904010012 79 127 0.0 0.0 0.00 0.00 0.00 87 1017.2
20260904005513 79 127 0.0 0.0 0.00 0.00 0.00 86 1017.1
20260904005008 79 127 0.0 0.0 0.00 0.00 0.00 86 1017.2
20260904004509 80 127 0.0 0.0 0.00 0.00 0.00 86 1017.0
20260904004008 80 127 0.0 0.0 0.00 0.00 0.00 85 1017.0
20260904003507 80 127 0.0 0.0 0.00 0.00 0.00 84 1017.0
20260904003012 80 127 0.0 0.0 0.00 0.00 0.00 83 1016.7
20260904002508 81 127 0.0 0.0 0.00 0.00 0.00 82 1016.7
20260904002008 81 127 0.0 0.0 0.00 0.00 0.00 81 1016.6
20260904001507 81 127 0.0 0.0 0.00 0.00 0.00 80 1016.6
20260904001010 82 127 0.0 0.0 0.00 0.00 0.00 78 1016.6
20260904000509 82 127 0.0 0.0 0.00 0.00 0.00 78 1016.6
20260904000010 82 127 0.0 0.0 0.00 0.00 0.00 76 1016.4
20260903235508 82 127 0.0 0.0 0.00 0.00 0.00 76 1016.5
20260903235006 83 127 0.0 0.0 0.00 0.00 0.00 75 1016.3
20260903234506 83 127 0.0 0.0 0.00 0.00 0.00 75 1016.3
20260903234007 84 127 0.0 0.0 0.00 0.00 0.00 73 1016.3
20260903233508 84 127 0.0 0.0 0.00 0.00 0.00 72 1016.2
20260903233006 85 127 0.0 0.0 0.00 0.00 0.00 72 1016.2
20260903232506 85 127 0.0 0.0 0.00 0.00 0.00 72 1016.2
20260903232006 85 127 0.0 0.0 0.00 0.00 0.00 70 1016.2
20260903231508 86 127 0.0 0.0 0.00 0.00 0.00 69 1016.1
20260903231005 86 127 0.0 0.0 0.00 0.00 0.00 67 1016.1
20260903230505 86 127 0.0 0.0 0.00 0.00 0.00 67 1016.1
20260903230005 86 127 0.0 0.0 0.00 0.00 0.00 66 1016.2
20260903225505 87 127 0.0 0.0 0.00 0.00 0.00 65 1016.1
20260903225003 87 127 0.0 0.0 0.00 0.00 0.00 65 1016.1
20260903224508 87 127 0.0 0.0 0.00 0.00 0.00 66 1016.1
20260903224003 88 126 0.0 0.0 0.00 0.00 0.00 63 1016.1
20260903223504 88 126 0.0 0.0 0.00 0.00 0.00 61 1016.1
20260903223004 89 127 0.0 1.0 0.00 0.00 0.00 61 1016.1
20260903222502 89 127 0.0 2.0 0.00 0.00 0.00 60 1016.0
20260903222003 90 106 0.0 1.0 0.00 0.00 0.00 58 1016.0
20260903221503 91 134 0.0 1.0 0.00 0.00 0.00 53 1016.0
20260903221003 91 102 0.0 2.0 0.00 0.00 0.00 55 1016.0
20260903220502 91 153 0.0 2.0 0.00 0.00 0.00 54 1016.0
20260903220001 91 86 0.0 2.0 0.00 0.00 0.00 56 1016.1
20260903215602 91 88 0.0 3.0 0.00 0.00 0.00 55 1016.1
20260903215059 91 117 0.0 3.0 0.00 0.00 0.00 53 1016.1
20260903214559 91 129 0.0 3.0 0.00 0.00 0.00 58 1016.3
20260903214059 92 113 0.0 4.0 0.00 0.00 0.00 58 1016.3
20260903213559 91 228 0.0 4.0 0.00 0.00 0.00 54 1016.3
20260903213059 90 116 0.0 2.0 0.00 0.00 0.00 62 1016.3
20260903212559 91 126 0.0 2.0 0.00 0.00 0.00 59 1016.2
20260903212058 91 201 0.0 2.0 0.00 0.00 0.00 55 1016.3
20260903211557 92 147 0.0 2.0 0.00 0.00 0.00 54 1016.4
20260903211057 92 30 0.0 3.0 0.00 0.00 0.00 52 1016.3
20260903210557 92 237 0.0 3.0 0.00 0.00 0.00 55 1016.4
20260903205556 92 233 1.0 3.0 0.00 0.00 0.00 52 1016.4
20260903205058 91 202 0.0 2.0 0.00 0.00 0.00 53 1016.5
20260903204555 91 5 0.0 2.0 0.00 0.00 0.00 56 1016.6
20260903204055 92 330 0.0 3.0 0.00 0.00 0.00 53 1016.6
20260903203554 92 88 0.0 4.0 0.00 0.00 0.00 54 1016.7
20260903203054 92 128 2.0 4.0 0.00 0.00 0.00 54 1016.7
20260903202556 92 36 0.0 6.0 0.00 0.00 0.00 53 1016.7
20260903202053 92 102 3.0 6.0 0.00 0.00 0.00 54 1016.8
20260903201553 92 105 1.0 3.0 0.00 0.00 0.00 56 1016.8
20260903201052 92 99 0.0 2.0 0.00 0.00 0.00 55 1016.8
20260903200552 92 55 0.0 6.0 0.00 0.00 0.00 51 1016.9
20260903195551 92 20 0.0 4.0 0.00 0.00 0.00 49 1017.0
20260903195050 92 98 1.0 4.0 0.00 0.00 0.00 49 1017.0
20260903194553 93 98 2.0 4.0 0.00 0.00 0.00 52 1017.1
20260903194049 93 183 0.0 3.0 0.00 0.00 0.00 56 1017.1
20260903193548 92 233 0.0 4.0 0.00 0.00 0.00 52 1017.2
20260903193054 92 215 1.0 7.0 0.00 0.00 0.00 52 1017.2
20260903192546 93 136 1.0 6.0 0.00 0.00 0.00 56 1017.3
20260903192045 92 266 0.0 3.0 0.00 0.00 0.00 55 1017.3
20260903191545 92 92 1.0 3.0 0.00 0.00 0.00 53 1017.4
20260903191046 92 290 0.0 4.0 0.00 0.00 0.00 55 1017.4
20260903190544 92 312 0.0 6.0 0.00 0.00 0.00 54 1017.5
20260903190047 91 88 2.0 6.0 0.00 0.00 0.00 56 1017.4
20260903185543 92 81 0.0 3.0 0.00 0.00 0.00 58 1017.5
20260903185042 92 305 0.0 5.0 0.00 0.00 0.00 54 1017.5
20260903184542 92 115 1.0 5.0 0.00 0.00 0.00 56 1017.6
20260903184041 90 269 1.0 3.0 0.00 0.00 0.00 60 1017.6
20260903183540 88 50 0.0 4.0 0.00 0.00 0.00 68 1017.7
20260903183042 91 49 1.0 4.0 0.00 0.00 0.00 60 1017.8
20260903182541 91 271 0.0 2.0 0.00 0.00 0.00 57 1017.8
20260903182040 90 32 0.0 5.0 0.00 0.00 0.00 57 1017.8
20260903181540 90 28 1.0 5.0 0.00 0.00 0.00 61 1017.9
20260903181041 89 111 0.0 2.0 0.00 0.00 0.00 61 1018.0
20260903180541 91 27 0.0 2.0 0.00 0.00 0.00 57 1017.9
20260903180040 91 314 0.0 3.0 0.00 0.00 0.00 54 1018.0
20260903175539 91 9 1.0 3.0 0.00 0.00 0.00 58 1018.2
20260903175038 91 280 0.0 4.0 0.00 0.00 0.00 59 1018.2
20260903174537 91 138 1.0 4.0 0.00 0.00 0.00 57 1018.4
20260903174041 90 208 1.0 3.0 0.00 0.00 0.00 57 1018.2
20260903173538 91 71 1.0 3.0 0.00 0.00 0.00 62 1018.4
20260903173039 91 101 0.0 6.0 0.00 0.00 0.00 61 1018.5
20260903172536 91 169 2.0 4.0 0.00 0.00 0.00 59 1018.5
20260903172038 91 281 0.0 3.0 0.00 0.00 0.00 59 1018.5
20260903171534 90 273 0.0 3.0 0.00 0.00 0.00 63 1018.6
20260903171033 90 161 1.0 4.0 0.00 0.00 0.00 62 1018.6
20260903170533 90 100 0.0 5.0 0.00 0.00 0.00 64 1018.7
20260903170033 90 296 1.0 5.0 0.00 0.00 0.00 62 1018.7
20260903165532 90 268 2.0 7.0 0.00 0.00 0.00 61 1018.8
20260903165030 90 74 1.0 7.0 0.00 0.00 0.00 67 1018.8
20260903164530 90 86 1.0 4.0 0.00 0.00 0.00 62 1018.9
20260903164029 90 86 0.0 4.0 0.00 0.00 0.00 63 1018.9
20260903163529 90 130 2.0 4.0 0.00 0.00 0.00 63 1019.0
20260903163029 89 64 0.0 7.0 0.00 0.00 0.00 68 1019.0
20260903162528 89 18 2.0 7.0 0.00 0.00 0.00 67 1018.9
20260903162028 89 82 1.0 4.0 0.00 0.00 0.00 67 1019.0
20260903161528 89 81 1.0 4.0 0.00 0.00 0.00 66 1019.0
20260903161027 89 218 0.0 2.0 0.00 0.00 0.00 65 1019.0
20260903160527 89 82 0.0 2.0 0.00 0.00 0.00 65 1019.0
20260903160027 89 61 0.0 2.0 0.00 0.00 0.00 69 1019.2
20260903155525 88 70 0.0 3.0 0.00 0.00 0.00 69 1019.1
20260903155024 88 63 0.0 3.0 0.00 0.00 0.00 69 1019.2
20260903154524 88 302 1.0 3.0 0.00 0.00 0.00 66 1019.2
20260903154023 87 26 0.0 4.0 0.00 0.00 0.00 70 1019.3
20260903153525 87 79 0.0 4.0 0.00 0.00 0.00 65 1019.3
20260903153022 87 338 0.0 3.0 0.00 0.00 0.00 67 1019.3
20260903152521 87 30 1.0 4.0 0.00 0.00 0.00 70 1019.3
20260903152022 87 94 1.0 4.0 0.00 0.00 0.00 68 1019.4
20260903151520 86 95 0.0 4.0 0.00 0.00 0.00 68 1019.4
20260903151020 86 63 0.0 4.0 0.00 0.00 0.00 71 1019.4
20260903150520 87 157 1.0 4.0 0.00 0.00 0.00 71 1019.4
20260903150031 86 129 0.0 3.0 0.00 0.00 0.00 71 1019.4
20260903145517 85 221 0.0 3.0 0.00 0.00 0.00 75 1019.3
20260903145017 85 273 0.0 0.0 0.00 0.00 0.00 71 1019.3
20260903144516 85 84 0.0 0.0 0.00 0.00 0.00 72 1019.3
20260903144016 85 355 0.0 1.0 0.00 0.00 0.00 74 1019.4
20260903143519 84 284 0.0 2.0 0.00 0.00 0.00 76 1019.3
20260903143028 84 234 0.0 2.0 0.00 0.00 0.00 75 1019.3
20260903142513 84 284 0.0 2.0 0.00 0.00 0.00 76 1019.3
20260903142013 83 284 0.0 3.0 0.00 0.00 0.00 78 1019.3
20260903141512 83 284 0.0 2.0 0.00 0.00 0.00 78 1019.3
20260903141013 83 284 0.0 1.0 0.00 0.00 0.00 79 1019.2
20260903140510 83 284 0.0 0.0 0.00 0.00 0.00 80 1019.2
20260903140010 83 284 0.0 0.0 0.00 0.00 0.00 80 1019.1
20260903135509 82 284 0.0 0.0 0.00 0.00 0.00 81 1019.1
20260903135007 82 284 0.0 0.0 0.00 0.00 0.00 80 1019.2
20260903134515 81 228 0.0 0.0 0.00 0.00 0.00 82 1019.2
20260903134006 81 271 0.0 0.0 0.00 0.00 0.00 84 1019.2
20260903133504 80 271 0.0 0.0 0.00 0.00 0.00 84 1019.2
20260903133003 80 271 0.0 0.0 0.00 0.00 0.00 86 1019.2
20260903132503 79 271 0.0 0.0 0.00 0.00 0.00 86 1019.2
20260903132100 79 271 0.0 0.0 0.00 0.00 0.00 87 1019.2
20260903131600 79 271 0.0 3.0 0.00 0.00 0.00 88 1019.3
20260903131059 78 271 0.0 3.0 0.00 0.00 0.00 88 1019.4
20260903130556 77 280 0.0 2.0 0.00 0.00 0.00 88 1019.3
20260903130058 77 311 0.0 2.0 0.00 0.00 0.00 89 1019.3
20260903125555 76 266 0.0 2.0 0.00 0.00 0.00 91 1019.5
20260903125054 76 266 0.0 0.0 0.00 0.00 0.00 92 1019.4
20260903124552 76 266 0.0 0.0 0.00 0.00 0.00 92 1019.4
20260903124051 75 265 0.0 0.0 0.00 0.00 0.00 94 1019.3
20260903123549 74 266 0.0 0.0 0.00 0.00 0.00 96 1019.2
20260903123049 73 269 0.0 0.0 0.00 0.00 0.00 97 1019.2
20260903122551 73 269 0.0 0.0 0.00 0.00 0.00 96 1019.2
20260903122049 73 269 0.0 1.0 0.00 0.00 0.00 97 1019.3
20260903121550 72 269 0.0 1.0 0.00 0.00 0.00 97 1019.2
20260903121048 71 269 0.0 1.0 0.00 0.00 0.00 97 1019.2
20260903120551 71 230 0.0 1.0 0.00 0.00 0.00 97 1019.2
20260903120053 71 230 0.0 1.0 0.00 0.00 0.00 98 1019.2
20260903115549 71 230 0.0 1.0 0.00 0.00 0.00 97 1019.1
20260903115046 71 230 0.0 0.0 0.00 0.00 0.00 97 1019.1
20260903114546 70 230 0.0 0.0 0.00 0.00 0.00 97 1019.1
20260903114048 70 230 0.0 0.0 0.00 0.00 0.00 98 1019.0
20260903113545 70 230 0.0 2.0 0.00 0.00 0.00 97 1018.9
20260903113046 70 230 0.0 2.0 0.00 0.00 0.00 97 1018.9
20260903112546 70 230 0.0 0.0 0.00 0.00 0.00 97 1018.8
20260903112044 70 230 0.0 0.0 0.00 0.00 0.00 97 1018.9
20260903111543 70 230 0.0 0.0 0.00 0.00 0.00 97 1018.8
20260903111045 70 230 0.0 0.0 0.00 0.00 0.00 97 1018.7
20260903110542 70 230 0.0 0.0 0.00 0.00 0.00 97 1018.7
20260903110042 70 230 0.0 0.0 0.00 0.00 0.00 97 1018.7
20260903105543 70 230 0.0 0.0 0.00 0.00 0.00 97 1018.5
20260903105040 70 230 0.0 0.0 0.00 0.00 0.00 97 1018.6
20260903104542 70 230 0.0 0.0 0.00 0.00 0.00 97 1018.5
20260903104039 70 230 0.0 0.0 0.00 0.00 0.00 97 1018.4
20260903103541 70 230 0.0 0.0 0.00 0.00 0.00 97 1018.4
20260903103038 70 230 0.0 0.0 0.00 0.00 0.00 97 1018.4
20260903102538 70 230 0.0 0.0 0.00 0.00 0.00 97 1018.3
20260903102037 70 230 0.0 0.0 0.00 0.00 0.00 97 1018.3
20260903101537 71 230 0.0 0.0 0.00 0.00 0.00 97 1018.3
20260903101037 71 230 0.0 0.0 0.00 0.00 0.00 97 1018.3
20260903100537 71 230 0.0 0.0 0.00 0.00 0.00 97 1018.2
20260903100036 71 230 0.0 0.0 0.00 0.00 0.00 97 1018.1
20260903095536 71 230 0.0 0.0 0.00 0.00 0.00 97 1018.1
20260903095036 71 230 0.0 0.0 0.00 0.00 0.00 97 1018.1
20260903094541 71 230 0.0 0.0 0.00 0.00 0.00 97 1018.2
20260903094036 71 230 0.0 0.0 0.00 0.00 0.00 97 1018.1
20260903093537 71 230 0.0 0.0 0.00 0.00 0.00 97 1018.0
20260903093049 71 230 0.0 0.0 0.00 0.00 0.00 97 1018.1
20260903092534 71 230 0.0 0.0 0.00 0.00 0.00 97 1018.0
20260903092036 71 230 0.0 0.0 0.00 0.00 0.00 97 1018.1
20260903091535 71 230 0.0 0.0 0.00 0.00 0.00 97 1018.1
20260903091036 71 230 0.0 0.0 0.00 0.00 0.00 97 1018.0
20260903090534 71 230 0.0 0.0 0.00 0.00 0.00 97 1017.9
20260903090035 71 230 0.0 0.0 0.00 0.00 0.00 97 1017.9
20260903085533 71 230 0.0 0.0 0.00 0.00 0.00 97 1017.9
20260903085033 71 230 0.0 0.0 0.00 0.00 0.00 97 1017.8
20260903084532 71 230 0.0 0.0 0.00 0.00 0.00 97 1017.7
20260903084035 71 230 0.0 0.0 0.00 0.00 0.00 97 1017.8
20260903083533 71 230 0.0 0.0 0.00 0.00 0.00 97 1017.9
20260903083032 71 230 0.0 0.0 0.00 0.00 0.00 97 1017.9
20260903082535 71 230 0.0 2.0 0.00 0.00 0.00 97 1017.9
20260903082034 71 230 0.0 2.0 0.00 0.00 0.00 97 1017.9
20260903081540 71 230 0.0 0.0 0.00 0.00 0.00 97 1018.0
20260903081030 72 230 0.0 0.0 0.00 0.00 0.00 97 1017.9
20260903080529 72 230 0.0 0.0 0.00 0.00 0.00 97 1017.8
20260903080029 72 230 0.0 0.0 0.00 0.00 0.00 97 1017.9
20260903075533 72 230 0.0 0.0 0.00 0.00 0.00 97 1017.9
20260903075028 72 230 0.0 0.0 0.00 0.00 0.00 97 1017.8
20260903074528 72 230 0.0 0.0 0.00 0.00 0.00 97 1017.8
20260903074028 72 230 0.0 0.0 0.00 0.00 0.00 97 1017.8
20260903073528 72 230 0.0 0.0 0.00 0.00 0.00 97 1017.7
20260903073031 72 230 0.0 0.0 0.00 0.00 0.00 97 1017.8
20260903072527 72 230 0.0 0.0 0.00 0.00 0.00 96 1017.8